User: anonymous   Login
Location: Unspecified
(0.0000°N, 0.0000°E)
Time: 04:10:54
(UTC+00:00)
Language:

ADEOS - Orbit

View from above orbital plane
View from above orbital plane
View from above satellite
View from above satellite

Ground track
Ground track

The orbit data is extracted from the following two-line orbital elements,

1 24277U 96046A   18022.46399362  .00000004  00000-0  19242-4 0  9998
2 24277  98.7522 337.9062 0002147  65.8914 294.2492 14.29407567117549
Epoch (UTC): 22 January 2018 11:08:09
Eccentricity: 0.0002147
inclination: 98.7522°
perigee height: 792 km
apogee height: 795 km
right ascension of ascending node: 337.9062°
argument of perigee: 65.8914°
revolutions per day: 14.29407567
mean anomaly at epoch: 294.2492°
orbit number at epoch: 11754

The dashed part of the orbit path shows where the satellite is in the earth's shadow,  

DLR